Regional Weather Roundup
Issued by NWS

Home | Current Version | Previous Version | Graphics & Text | Print | Product List | Glossary On
Versions: 1 2 3 4 5 6 7 8 9 10 11 12 13 14 15 16 17 18 19 20 21 22 23 24 25 26 27 28 29 30 31 32 33 34 35 36 37 38 39 40 41 42 43 44 45 46 47 48 49 50
000
ASUS43 KDMX 100307
RWRIA

WEATHER ROUNDUP FOR IOWA
NATIONAL WEATHER SERVICE DES MOINES IA
1000 PM CDT WED JUL 09 2014

NOTE: "FAIR" INDICATES FEW OR NO CLOUDS BELOW 12,000 FEET WITH NO
SIGNIFICANT WEATHER AND/OR OBSTRUCTIONS TO VISIBILITY.

* - THESE STATIONS ARE NOT NWS STATIONS...THUS NOT UNDER NWS
QUALITY CONTROL.  THEY ALSO DO NOT REPORT WEATHER SUCH
AS PRECIPITATION OR FOG.

IAZ001>003-012>014-020>022-031>034-043>046-100400-
   NORTHWEST IOWA

CITY           SKY/WX    TMP DP  RH WIND       PRES   REMARKS
CARROLL *      PTCLDY    66  63  88 CALM      30.02R
CHEROKEE *     CLEAR     68  64  88 CALM      30.00R
DENISON *      CLEAR     72  63  73 S7        30.00R
LE MARS *      MOCLDY    70  64  83 S3        30.00R
ORANGE CITY *  CLEAR     75  61  60 CALM      30.00R
SHELDON *      CLEAR     66  63  88 SE6       29.99R
SIOUX CITY     PTCLDY    67  63  87 CALM      30.00R
SPENCER        MOCLDY    69  63  81 E6        30.01R
STORM LAKE *   CLEAR     66  63  88 SE5       30.02R
$$

IAZ055>058-069>071-079>083-090>094-100400-
   SOUTHWEST IOWA

CITY           SKY/WX    TMP DP  RH WIND       PRES   REMARKS
ATLANTIC *     MOCLDY    68  64  88 SW5       30.02R
AUDUBON *      CLEAR     66  64  94 CALM      30.04R
CLARINDA *     MOCLDY    70 -35   1 SW3       30.05R
COUNCIL BLFS *   N/A     70  66  88 S6        30.02R
CRESTON *      CLEAR     68  61  77 S6        30.05R
HARLAN  *      CLEAR     68  64  88 S5        30.05R
LAMONI         PTCLDY    70  61  73 S6        30.05R
RED OAK *      CLEAR     70  64  83 S3        30.04R
SHENANDOAH *   CLEAR     72  66  83 CALM      30.04R
$$

IAZ047>049-059>061-072>074-084-100400-
   CENTRAL IOWA

CITY           SKY/WX    TMP DP  RH WIND       PRES   REMARKS
AMES           MOCLDY    68  63  84 S5        30.02R
ANKENY *       CLEAR     66  63  88 CALM      30.02R
CHARITON *     CLEAR     68  63  83 SE5       30.05R
DES MOINES     PTCLDY    73  60  63 S6        30.02R
GRINNELL*      PTCLDY    68  61  77 S3        30.05R
KNOXVILLE *    CLEAR     70  59  68 SE6       30.03R
MARSHALLTOWN   PTCLDY    67  61  81 S3        30.02R
PELLA *        CLEAR     66  59  77 SE3       30.05R
PERRY *          N/A     66  64  94 S5        30.03R
$$

IAZ004>006-015-016-023>025-035-036-100400-
   NORTH CENTRAL IOWA

CITY           SKY/WX    TMP DP  RH WIND       PRES   REMARKS
ALGONA *       CLEAR     68  63  83 CALM      30.02R
CLARION *      CLEAR     64  61  88 CALM      30.02R
ESTHERVILLE    CLEAR     66  55  67 E3        30.01R
FORT DODGE *   PTCLDY    64  63  94 CALM      30.02R
MASON CITY     MOCLDY    68  62  81 CALM      30.03R
FOREST CITY *  CLOUDY    66  61  82 CALM      30.02R
IOWA FALLS *     N/A     66  61  82 SE6       30.03R
$$

IAZ007>011-017>019-026>030-037>042-050>054-066-100400-
   NORTHEAST IOWA

CITY           SKY/WX    TMP DP  RH WIND       PRES   REMARKS
CEDAR RAPIDS   CLEAR     65  60  84 CALM      30.03R
CHARLES CITY * CLEAR     64  59  82 S7        30.03R
CLINTON *      CLEAR     64  57  77 E3        30.07R
DECORAH *        N/A    N/A N/A N/A MISG        N/A
DUBUQUE        CLEAR     64  57  78 CALM      30.05R
MONTICELLO *   CLEAR     63  61  94 CALM      30.04R
OELWEIN *      MOCLDY    66  66 100 E7        30.04R
WATERLOO       PTCLDY    68  59  73 S3        30.01R
$$

IAZ064-065-067-068-078-100400-
   EAST CENTRAL IOWA

CITY           SKY/WX    TMP DP  RH WIND       PRES   REMARKS
DAVENPORT      CLEAR     66  57  72 CALM      30.04R
IOWA CITY      CLEAR     67  60  78 CALM      30.05R
MT. PLEASANT * CLEAR     64  59  82 CALM      30.05R
MUSCATINE *    CLEAR     66  61  82 CALM      30.04R
QUAD CITIES    CLEAR     64  58  80 CALM      30.03R
$$

IAZ062-063-075>077-085>089-095>099-100400-
   SOUTHEAST IOWA

CITY           SKY/WX    TMP DP  RH WIND       PRES   REMARKS
BURLINGTON     CLEAR     65  61  87 CALM      30.04R
FAIRFIELD *    CLEAR     64  59  82 CALM      30.05R
FORT MADISON * CLEAR     64  63  94 CALM      30.06R
KEOKUK *       CLEAR     66  61  82 CALM      30.04R
OSKALOOSA *      N/A     68  63  83 CALM      30.05R
CENTERVILLE *  CLEAR     63  63 100 SE3       30.07R
OTTUMWA        CLEAR     64  61  90 CALM      30.05R
WASHINGTON *   CLEAR     66  63  88 CALM      30.05R
$$

ABBREVIATIONS USED IN REMARKS
   TC - TEMPERATURES IN CELSIUS
  WCI - WIND CHILL INDEX
   HX - HEAT INDEX
  VSB - VISIBILITY
$$




USA.gov is the U.S. government's official web portal to all federal, state and local government web resources and services.